Date String (YYYY-MM-DD hh:mm:ss) UTC,Instrument flags,absolute air pressure of the measurement (hPa),sample flow rate (lpm),inlet stack bypass flow (lpm),air temperature of the measurement (°C),ambient temperature measured by the external sensor (°C),aerosol sample conditioner tube jacket temperature (°C),OPC LED temperature (°C),internal box temperature (°C),relative humidity of the measurement (%),span deviation,mass concentration of particles derived from Lorenz-Mie calculation of OPC scattering (μg/m³),mass concentration of particles derived from Lorenz-Mie calculation of OPC scattering (μg/m³),mass concentration of particles derived from Lorenz-Mie calculation of OPC scattering (μg/m³)
DateTimeUTC,F1_M11,P_M11,Q1_M11,Q2_M11,T1_M11,T2_M11,T3_M11,T4_M11,T5_M11,U1_M11,ZSPAN_M11,X2_M11,X0_M11,X1_M11
2023-07-29 15:00:00,SystemResetWarning,0838.5,4.98,000.00,029.2,026.9,000.0,037.7,030.7,35.1,0000.0,0005.13,0015.84,0003.94
2023-07-29 15:01:00,SystemResetWarning,0838.6,5.03,000.00,029.4,027.2,000.0,037.7,030.9,34.8,0000.0,0005.16,0015.70,0003.98
2023-07-29 15:02:00,SystemResetWarning,0838.6,4.97,000.00,029.6,027.4,000.0,037.7,031.0,34.2,0000.0,0005.22,0016.48,0004.03
2023-07-29 15:03:00,SystemResetWarning,0838.6,5.01,000.00,029.7,027.6,000.0,037.8,031.0,34.3,0000.0,0005.34,0016.73,0004.10
2023-07-29 15:04:00,SystemResetWarning,0838.6,5.01,000.00,029.8,027.8,000.0,037.8,031.1,33.7,0000.0,0005.44,0016.89,0004.19
2023-07-29 15:05:00,SystemResetWarning,0838.6,4.98,000.00,029.8,028.0,000.0,037.8,031.1,33.4,0000.0,0005.60,0016.85,0004.31
2023-07-29 15:06:00,SystemResetWarning,0838.6,4.99,000.00,029.9,028.1,000.0,037.9,031.1,33.6,0000.0,0005.66,0016.91,0004.39
2023-07-29 15:07:00,SystemResetWarning,0838.6,5.01,000.00,029.9,028.2,000.0,038.0,031.2,33.5,0000.0,0005.77,0016.86,0004.47
2023-07-29 15:08:00,SystemResetWarning,0838.6,5.00,000.00,030.0,028.3,000.0,038.0,031.2,33.6,-001.1,0005.92,0015.17,0004.58
2023-07-29 15:09:00,SystemResetWarning,0838.6,4.99,000.00,030.0,028.0,000.0,038.0,031.2,33.5,0000.0,0006.09,0014.94,0004.67
2023-07-29 15:10:00,SystemResetWarning,0838.6,4.99,000.00,030.0,026.3,000.0,037.9,031.0,34.1,-003.5,0006.17,0015.14,0004.76
2023-07-29 15:11:00,SystemResetWarning,0838.6,5.01,000.00,029.9,025.2,000.0,037.9,030.8,33.8,-003.8,0006.25,0015.13,0004.82
2023-07-29 15:12:00,SystemResetWarning,0838.6,5.01,000.00,029.8,025.1,000.0,037.8,030.5,33.7,-003.7,0006.35,0015.35,0004.87
2023-07-29 15:13:00,SystemResetWarning,0838.6,5.00,000.00,029.7,025.4,000.0,037.9,030.4,34.2,-003.6,0006.47,0014.63,0004.94
2023-07-29 15:14:00,SystemResetWarning,0838.6,4.99,000.00,029.6,025.8,000.0,037.9,030.5,34.2,-003.3,0006.52,0014.86,0004.97
2023-07-29 15:15:00,SystemResetWarning,0838.6,5.00,000.00,029.6,026.3,000.0,038.0,030.6,34.2,-003.0,0006.56,0015.37,0005.01
2023-07-29 15:16:00,SystemResetWarning,0838.6,5.00,000.00,029.6,026.7,000.0,038.0,030.7,33.6,-003.0,0006.54,0015.48,0005.02
2023-07-29 15:17:00,SystemResetWarning,0838.6,5.00,000.00,029.6,027.0,000.0,038.0,030.8,34.0,-003.2,0006.61,0015.84,0005.06
2023-07-29 15:18:00,SystemResetWarning,0838.6,5.00,000.00,029.6,027.3,000.0,038.0,030.9,34.2,-003.4,0006.65,0016.63,0005.10
2023-07-29 15:19:00,SystemResetWarning,0838.6,4.99,000.00,029.6,027.5,000.0,038.0,030.9,34.4,-003.3,0006.67,0016.62,0005.11
2023-07-29 15:20:00,SystemResetWarning,0838.6,4.99,000.00,029.7,027.7,000.0,038.0,031.0,34.0,-003.1,0006.67,0017.46,0005.12
2023-07-29 15:21:00,SystemResetWarning,0838.6,5.02,000.00,029.7,027.9,000.0,038.0,031.0,33.7,-002.8,0006.71,0017.67,0005.15
2023-07-29 15:22:00,SystemResetWarning,0838.6,5.01,000.00,029.7,028.0,000.0,038.0,031.1,34.1,-002.7,0006.82,0018.48,0005.20
2023-07-29 15:23:00,SystemResetWarning,0838.6,5.00,000.00,029.7,028.1,000.0,038.0,031.1,34.0,-002.9,0006.90,0018.93,0005.26
2023-07-29 15:24:00,SystemResetWarning,0838.6,5.00,000.00,029.8,028.2,000.0,038.0,031.2,33.5,-002.8,0006.96,0019.23,0005.31
2023-07-29 15:25:00,SystemResetWarning,0838.6,5.00,000.00,029.8,028.3,000.0,038.1,031.2,33.8,-003.0,0006.98,0019.94,0005.36
2023-07-29 15:26:00,SystemResetWarning,0838.6,4.99,000.00,029.8,028.1,000.0,038.0,031.2,33.3,-003.4,0007.07,0020.61,0005.42
2023-07-29 15:27:00,SystemResetWarning,0838.7,4.99,000.00,029.8,026.5,000.0,037.9,031.0,33.5,-003.4,0007.14,0020.52,0005.48
2023-07-29 15:28:00,SystemResetWarning,0838.6,5.01,000.00,029.7,025.3,000.0,037.9,030.8,33.9,-003.4,0007.14,0022.16,0005.49
2023-07-29 15:29:00,SystemResetWarning,0838.6,5.01,000.00,029.6,025.2,000.0,037.8,030.6,33.7,-003.1,0007.17,0021.67,0005.54
2023-07-29 15:30:00,SystemResetWarning,0838.6,5.01,000.00,029.5,025.5,000.0,037.8,030.5,34.0,-003.0,0007.27,0022.62,0005.63
2023-07-29 15:31:00,SystemResetWarning,0838.6,5.00,000.00,029.4,025.9,000.0,037.9,030.5,33.6,-003.2,0007.35,0022.34,0005.71
2023-07-29 15:32:00,SystemResetWarning,0838.6,5.00,000.00,029.4,026.3,000.0,037.9,030.6,33.7,-003.1,0007.44,0022.85,0005.79
2023-07-29 15:33:00,SystemResetWarning,0838.6,5.00,000.00,029.4,026.7,000.0,037.9,030.7,34.0,-003.3,0007.44,0022.29,0005.85
2023-07-29 15:34:00,SystemResetWarning,0838.6,5.00,000.00,029.4,027.0,000.0,037.9,030.8,33.9,-003.2,0007.45,0022.11,0005.90
2023-07-29 15:35:00,SystemResetWarning,0838.6,5.00,000.00,029.4,027.3,000.0,037.9,030.8,33.9,-003.0,0007.45,0021.51,0005.95
2023-07-29 15:36:00,SystemResetWarning,0838.6,5.00,000.00,029.5,027.5,000.0,037.9,030.9,33.6,-003.2,0007.48,0020.98,0005.98
2023-07-29 15:37:00,SystemResetWarning,0838.6,4.99,000.00,029.5,027.7,000.0,037.9,030.9,33.9,-002.9,0007.42,0019.80,0005.98
2023-07-29 15:38:00,SystemResetWarning,0838.6,5.01,000.00,029.5,027.9,000.0,037.9,031.0,34.1,-003.1,0007.35,0019.78,0005.97
2023-07-29 15:39:00,SystemResetWarning,0838.6,5.00,000.00,029.5,028.0,000.0,037.9,031.0,33.6,-003.3,0007.34,0018.35,0005.99
2023-07-29 15:40:00,SystemResetWarning,0838.7,5.01,000.00,029.6,028.2,000.0,037.9,031.1,33.3,-003.5,0007.32,0017.62,0005.98
2023-07-29 15:41:00,SystemResetWarning,0838.6,5.00,000.00,029.6,028.3,000.0,037.9,031.1,33.6,-003.7,0007.23,0015.80,0005.94
2023-07-29 15:42:00,SystemResetWarning,0838.7,5.00,000.00,029.6,028.0,000.0,037.9,031.2,33.6,-003.8,0007.21,0015.34,0005.91
2023-07-29 15:43:00,SystemResetWarning,0838.7,4.98,000.00,029.6,026.4,000.0,037.8,030.9,33.5,-004.0,0007.11,0014.66,0005.86
2023-07-29 15:44:00,SystemResetWarning,0838.7,5.03,000.00,029.5,025.3,000.0,037.7,030.7,34.0,-004.2,0007.07,0014.41,0005.82
2023-07-29 15:45:00,SystemResetWarning,0838.7,5.00,000.00,029.4,025.1,000.0,037.7,030.5,34.6,-004.3,0006.93,0013.90,0005.75
2023-07-29 15:46:00,SystemResetWarning,0838.6,4.97,000.00,029.3,025.4,000.0,037.7,030.4,34.8,-004.2,0006.88,0013.81,0005.70
2023-07-29 15:47:00,SystemResetWarning,0838.6,5.04,000.00,029.4,025.8,000.0,037.7,030.5,34.8,-004.0,0006.82,0013.04,0005.67
2023-07-29 15:48:00,SystemResetWarning,0838.7,4.96,000.00,029.5,026.3,000.0,037.7,030.7,34.5,-004.1,0006.82,0012.71,0005.67
2023-07-29 15:49:00,SystemResetWarning,0838.6,5.01,000.00,029.6,026.6,000.0,037.8,030.8,34.7,-004.0,0006.82,0012.87,0005.66
2023-07-29 15:50:00,SystemResetWarning,0838.6,5.01,000.00,029.6,027.0,000.0,037.8,030.8,34.5,-003.5,0006.79,0012.63,0005.66
2023-07-29 15:51:00,SystemResetWarning,0838.6,5.00,000.00,029.7,027.3,000.0,037.8,030.9,34.5,-003.4,0006.80,0012.43,0005.68
2023-07-29 15:52:00,SystemResetWarning,0838.6,5.00,000.00,029.7,027.5,000.0,037.8,030.9,34.1,-002.9,0006.77,0012.46,0005.67
2023-07-29 15:53:00,SystemResetWarning,0838.6,5.00,000.00,029.7,027.7,000.0,037.9,031.0,33.6,-002.5,0006.71,0012.26,0005.65
2023-07-29 15:54:00,SystemResetWarning,0838.6,5.00,000.00,029.8,027.9,000.0,037.9,031.0,33.3,-001.4,0006.73,0012.41,0005.67
2023-07-29 15:55:00,SystemResetWarning,0838.6,4.99,000.00,029.8,028.0,000.0,038.0,031.1,33.3,-001.5,0006.74,0012.43,0005.68
2023-07-29 15:56:00,SystemResetWarning,0838.6,5.00,000.00,029.8,028.1,000.0,038.0,031.1,33.4,-001.2,0006.76,0012.47,0005.69
2023-07-29 15:57:00,SystemResetWarning,0838.6,5.00,000.00,029.9,027.9,000.0,038.0,031.2,33.8,-001.8,0006.78,0012.56,0005.71
2023-07-29 15:58:00,SystemResetWarning,0838.6,5.00,000.00,029.9,026.3,000.0,037.9,030.9,34.3,-001.5,0006.78,0012.70,0005.71
2023-07-29 15:59:00,SystemResetWarning,0838.6,5.00,000.00,029.8,025.3,000.0,037.8,030.7,34.2,-001.8,0006.76,0012.80,0005.72
